[[{"header":{"parameterUnit":"m.s-1","parameterCategory":1,"la1":30.2991,"la2":30.254,"lo1":-89.0895,"lo2":-89.0444,"dy":0.0017,"dx":0.0017,"nx":28,"ny":28,"refTime":"2025-07-09T21:00:00:Z","depth":0,"parameterNumber":2,"parameterNumberName":"U-component_of_WINDS"},"data":[0,0,0,0,0,0,0,0,0,0,0,0,0,0,0,0,0,0,0,0,0,0,0,0,0,0,0,0,0,0,0,0,0,0,0,0,0,0,0,0,0,0,0,0,0,0,0,0,0,0,0,0,0,0,0,0,0,0,3.7351,3.7352,0,3.7475,3.7477,3.7478,3.7418,3.7414,3.7411,3.7408,3.7538,3.7545,3.7551,0,0,0,0,0,0,0,0,0,0,0,0,0,3.7062,3.7068,3.7351,3.7352,3.7354,3.7475,3.7477,3.7478,3.7418,3.7414,3.741,3.7407,3.7536,3.7544,3.7552,0,0,0,0,0,0,0,0,0,0,0,0,0,3.7187,3.707,3.7351,3.7339,3.7339,3.7475,3.7477,3.7479,3.7419,3.7414,3.7409,3.7405,3.7534,3.7543,3.7553,3.7709,0,0,3.7582,3.7586,0,0,0,0,0,0,0,0,3.718,3.7198,3.7339,3.734,3.734,3.7426,3.7422,3.7556,3.742,3.7389,3.7408,3.7403,3.7505,3.7517,3.7551,3.7715,3.772,3.7583,3.7589,3.7593,3.7596,0,0,0,0,0,0,0,3.7172,3.7192,3.74,3.7341,3.7342,3.7327,3.7339,3.7448,3.7472,3.7391,3.7387,3.7402,3.7504,3.7542,3.7553,3.7722,3.7583,3.7591,3.7597,3.7601,3.8017,3.8022,0,0,0,0,0,0,3.7163,3.7186,3.7396,3.7404,3.7247,3.7336,3.735,3.7403,3.7471,3.7477,3.7406,3.7399,3.7527,3.7542,3.7558,3.7742,3.7593,3.7602,3.7608,3.8012,3.8018,3.8024,0,0,0,0,0,0,3.7157,3.7183,3.7391,3.7294,3.7319,3.7346,3.7406,3.7408,3.7445,3.7482,3.7487,3.7439,3.7524,3.7544,3.767,3.7746,3.7606,3.7615,3.8006,3.8014,3.8021,3.8114,0,0,0,0,0,0,3.7149,3.7181,3.7241,3.7295,3.7324,3.7502,3.7411,3.7414,3.7462,3.7453,3.7515,3.752,3.7522,3.7656,3.768,3.7757,3.7623,3.7999,3.8009,3.8018,3.8104,3.8124,3.8141,0,0,0,0,0,3.7139,3.7263,3.7244,3.727,3.7399,3.7507,3.7523,3.7522,3.7468,3.7528,3.7551,3.7518,3.7734,3.767,3.7696,3.7777,3.7994,3.8006,3.8018,3.8096,3.812,3.8141,0,0,0,0,0,0,3.7218,3.727,3.7249,3.7395,3.7446,3.7496,3.7572,3.7548,3.7617,3.7606,3.7602,3.7616,3.7747,3.7775,3.7702,3.793,3.7856,3.7873,3.7907,3.793,3.7948,3.7938,3.7631,0,0,0,0,0,3.7252,3.7335,3.7376,3.75,3.7527,3.7545,3.7592,3.7586,3.7639,3.7661,3.7694,3.7748,3.7828,3.7881,3.7956,3.8108,3.812,3.8177,3.8195,3.821,3.8225,3.8304,3.8329,3.8062,3.8062,3.8062,0,0,3.7324,3.7363,3.7415,3.7517,3.7556,3.7641,3.7564,3.7658,3.7721,3.7676,3.7796,3.7822,3.7882,3.8022,3.8085,3.8049,3.8301,3.8225,3.8236,3.8243,3.8319,3.8344,3.8367,3.807,3.8069,3.8068,0,0,3.7498,3.7536,3.7642,3.7683,3.7742,3.7753,3.7779,3.7832,3.7846,3.7967,3.7934,3.8009,3.8147,3.819,3.823,3.8417,3.8389,3.8442,3.8538,3.8615,3.8636,3.8655,3.8719,3.8743,3.8457,3.8457,3.8458,0,3.758,3.7706,3.77,3.7796,3.784,3.7802,3.7909,3.7949,3.8031,3.8063,3.8021,3.8191,3.8229,3.8376,3.8421,3.8456,3.8484,3.8435,3.8634,3.8652,3.867,3.8731,3.8755,3.8463,3.8463,3.8462,3.8461,0,3.7802,3.789,3.7969,3.8047,3.81,3.8202,3.8211,3.8266,3.8255,3.827,3.8392,3.8435,3.8517,3.8552,3.8544,3.8698,3.8673,3.8633,3.8559,3.8701,3.8758,3.8782,3.8472,3.847,3.8468,3.8466,0,0,3.8031,3.8102,3.8131,3.8164,3.8226,3.8294,3.8392,3.8471,3.8517,3.8575,3.8656,3.8773,3.8734,3.878,3.8775,3.8844,3.8986,3.8795,3.8796,3.8827,3.9156,3.9184,3.9212,3.8967,3.8972,3.8976,3.915,0,3.8207,3.8378,3.8374,3.8533,3.8613,3.8576,3.8662,3.8709,3.8725,3.8795,3.8813,3.8895,3.884,3.8866,3.8932,3.8955,3.9052,3.8942,3.9042,3.9046,3.9027,3.9242,3.9274,3.9436,3.9173,3.9177,3.9179,0,3.8436,3.8498,3.8664,3.8711,3.8745,3.8822,3.8892,3.896,3.9012,3.9018,3.9068,3.9052,3.9151,3.9074,3.9209,3.9135,3.9176,3.9193,3.9199,3.9207,3.912,3.9255,3.9489,3.9512,3.9215,3.9212,3.921,0,3.8583,3.8709,3.8823,3.8854,3.8912,3.8966,3.8994,3.9041,3.9087,3.9149,3.9179,3.9252,3.9292,3.9349,3.9353,3.9297,3.9489,3.9413,3.9496,3.9496,3.9538,3.9535,3.9779,3.9567,3.9567,3.9566,3.9566,0,3.8779,3.8882,3.8889,3.896,3.9073,3.9068,3.918,3.9202,3.9244,3.9318,3.9292,3.9362,3.9363,3.9434,3.9438,3.9548,3.9567,3.9574,3.9574,3.9576,3.9575,3.9602,3.959,3.9573,3.9571,3.957,3.9569,0,3.8963,3.8972,3.9094,3.9139,3.9152,3.9233,3.9271,3.9338,3.9351,3.9444,3.9466,3.9486,3.9568,3.9577,3.9674,3.9676,3.9809,3.9797,3.979,3.9788,3.987,3.9861,4.0139,4.0174,3.9941,3.9943,3.9945,0,3.9087,3.9164,3.9216,3.9262,3.9292,3.9368,3.9414,3.9412,3.9462,3.9525,3.9584,3.9663,3.9726,3.9858,3.9882,3.9955,3.9944,4.0036,3.9955,3.9953,3.9942,3.9937,3.9944,4.0051,4.0054,4.0056,4.0058,0,3.9305,3.9305,3.9373,3.9441,3.9497,3.9552,3.9603,3.9643,3.9646,3.9703,3.9785,3.9834,3.9931,4.0009,4.008,4.0108,4.0084,4.0083,4.0106,4.0108,4.01,4.0103,3.9831,4.0077,4.0075,4.0073,4.0072,4.0072,3.9461,3.9527,3.9573,3.9648,3.9686,3.9733,3.9797,3.9816,3.9885,3.9962,3.9957,4.0047,4.0095,4.0187,4.022,4.0291,4.026,4.0294,4.0302,4.031,4.0317,4.009,4.0304,4.0304,4.0303,4.0303,4.0302,0,3.9676,3.9703,3.9772,3.9843,3.9902,3.9872,3.9926,3.9978,4.0057,4.0103,4.0164,4.0258,4.0333,4.0362,4.0435,4.0486,4.0476,4.0505,4.05,4.0506,4.0341,4.0313,4.0511,4.0511,4.0511,4.0511,4.0511,4.0511,3.9795,3.9904,3.9909,4.0036,4.0062,4.0149,4.0182,4.0225,4.0261,4.0366,4.0428,4.0445,4.0484,4.0559,4.0626,4.0632,4.066,4.0693,4.0694,4.054,4.0518,4.0498,4.0472,4.0699,4.07,4.0853,4.0854,4.0856]},{"header":{"parameterUnit":"m.s-1","parameterCategory":1,"la1":30.2991,"la2":30.254,"lo1":-89.0895,"lo2":-89.0444,"dy":0.0017,"dx":0.0017,"nx":28,"ny":28,"refTime":"2025-07-09T21:00:00:Z","depth":0,"parameterNumber":3,"parameterNumberName":"V-component_of_WINDS"},"data":[0,0,0,0,0,0,0,0,0,0,0,0,0,0,0,0,0,0,0,0,0,0,0,0,0,0,0,0,0,0,0,0,0,0,0,0,0,0,0,0,0,0,0,0,0,0,0,0,0,0,0,0,0,0,0,0,0,0,0.4402,0.4401,0,0.4361,0.4361,0.436,0.4303,0.4302,0.4301,0.4301,0.426,0.426,0.426,0,0,0,0,0,0,0,0,0,0,0,0,0,0.4429,0.4429,0.4402,0.4401,0.4401,0.4361,0.4361,0.436,0.4304,0.4302,0.4301,0.43,0.426,0.426,0.426,0,0,0,0,0,0,0,0,0,0,0,0,0,0.4406,0.4429,0.4402,0.4368,0.4364,0.4361,0.4361,0.436,0.4304,0.4302,0.4301,0.43,0.426,0.426,0.426,0.4287,0,0,0.4259,0.4259,0,0,0,0,0,0,0,0,0.4407,0.4405,0.4373,0.437,0.4366,0.4336,0.4355,0.4336,0.4304,0.4327,0.4301,0.4299,0.4286,0.4284,0.428,0.4285,0.4284,0.4259,0.4259,0.4258,0.4258,0,0,0,0,0,0,0,0.4409,0.4406,0.4386,0.4373,0.4368,0.4354,0.4349,0.4352,0.4315,0.4325,0.432,0.4316,0.4284,0.428,0.4278,0.4283,0.4259,0.4258,0.4258,0.4258,0.4308,0.431,0,0,0,0,0,0,0.4416,0.4408,0.4387,0.4384,0.4383,0.4355,0.4349,0.4347,0.4315,0.4309,0.4318,0.4314,0.4281,0.4279,0.4277,0.4306,0.4258,0.4258,0.4258,0.4307,0.4308,0.431,0,0,0,0,0,0,0.4417,0.4414,0.4389,0.4395,0.4391,0.4356,0.4354,0.4347,0.4343,0.431,0.4303,0.432,0.428,0.4277,0.4285,0.4304,0.4258,0.4258,0.4305,0.4307,0.4309,0.4367,0,0,0,0,0,0,0.4418,0.4415,0.4425,0.4396,0.4391,0.4398,0.4355,0.4347,0.4342,0.4337,0.431,0.4304,0.4278,0.4285,0.4284,0.4303,0.4258,0.4303,0.4306,0.4309,0.4363,0.4371,0.4377,0,0,0,0,0,0.4419,0.4444,0.4426,0.4424,0.4403,0.4399,0.4396,0.4366,0.4344,0.4354,0.4333,0.4305,0.4302,0.4287,0.4285,0.4304,0.4302,0.4305,0.4308,0.436,0.4369,0.4377,0,0,0,0,0,0,0.4477,0.4439,0.4419,0.4435,0.4421,0.4389,0.4401,0.4377,0.4368,0.4363,0.4326,0.432,0.4333,0.4319,0.4302,0.4328,0.4298,0.4301,0.4337,0.4346,0.4353,0.4356,0.4257,0,0,0,0,0,0.4491,0.4492,0.4458,0.4476,0.4469,0.4437,0.4434,0.4411,0.4395,0.4389,0.4368,0.4353,0.4348,0.4346,0.434,0.436,0.4353,0.4372,0.4379,0.4386,0.4389,0.4398,0.4406,0.4321,0.4321,0.4321,0,0,0.4522,0.4501,0.4504,0.4487,0.4473,0.4474,0.4432,0.4435,0.4435,0.4389,0.4395,0.4379,0.436,0.4374,0.4379,0.4363,0.4411,0.439,0.4395,0.4395,0.4402,0.441,0.4417,0.4323,0.4323,0.4323,0,0,0.4578,0.4562,0.4575,0.4561,0.454,0.4518,0.4521,0.4493,0.4481,0.4486,0.4451,0.4451,0.4444,0.4431,0.4424,0.4474,0.4448,0.4473,0.451,0.452,0.4526,0.4532,0.455,0.4556,0.4476,0.4476,0.4476,0,0.4618,0.4618,0.4584,0.4589,0.4582,0.454,0.4552,0.4541,0.4519,0.4516,0.4497,0.4487,0.4471,0.4481,0.4493,0.4489,0.4491,0.4476,0.4528,0.4533,0.4538,0.4555,0.4561,0.4479,0.4479,0.4479,0.4478,0,0.4669,0.4669,0.4682,0.4662,0.4656,0.4665,0.4632,0.463,0.4608,0.4588,0.4593,0.4572,0.4561,0.4561,0.454,0.4568,0.4559,0.4535,0.4503,0.455,0.4565,0.4571,0.4484,0.4483,0.4482,0.4481,0,0,0.4762,0.4722,0.4727,0.4717,0.469,0.469,0.4696,0.4684,0.4684,0.467,0.4674,0.4668,0.4646,0.4637,0.4614,0.4622,0.4662,0.4596,0.4595,0.461,0.4692,0.471,0.4718,0.4644,0.4645,0.4646,0.4693,0,0.4813,0.4821,0.479,0.4807,0.4806,0.4765,0.477,0.4754,0.4735,0.4732,0.471,0.4707,0.4677,0.4672,0.4678,0.4656,0.4678,0.4652,0.4648,0.4648,0.4655,0.4726,0.4746,0.4791,0.4699,0.47,0.47,0,0.4874,0.4863,0.4879,0.485,0.4849,0.4855,0.4841,0.4838,0.4819,0.4804,0.4795,0.4767,0.477,0.4739,0.4743,0.4726,0.4722,0.4711,0.4712,0.4711,0.4678,0.4727,0.4805,0.4812,0.4709,0.4708,0.4708,0,0.494,0.4929,0.4937,0.493,0.4897,0.4901,0.4888,0.4867,0.4862,0.485,0.4846,0.4835,0.4829,0.482,0.479,0.477,0.4797,0.4764,0.4785,0.4786,0.4794,0.4794,0.4873,0.4791,0.479,0.479,0.479,0,0.5001,0.5012,0.4966,0.4972,0.4983,0.4947,0.4959,0.4942,0.4923,0.4924,0.4887,0.4889,0.4848,0.4845,0.4821,0.4828,0.4825,0.4813,0.4807,0.4817,0.4819,0.4815,0.4811,0.4792,0.4792,0.4791,0.4791,0,0.5077,0.5047,0.5053,0.5021,0.5013,0.5023,0.4995,0.4998,0.4976,0.4978,0.4976,0.4941,0.4935,0.4904,0.4891,0.4874,0.489,0.4877,0.4897,0.4892,0.4916,0.4914,0.4995,0.5004,0.4916,0.4917,0.4918,0,0.5118,0.5126,0.5094,0.5092,0.508,0.5077,0.5071,0.5035,0.5031,0.5009,0.5015,0.5006,0.4997,0.4989,0.4963,0.4952,0.4939,0.4968,0.4937,0.4946,0.4939,0.494,0.494,0.4975,0.4976,0.4977,0.4978,0,0.5194,0.5178,0.5172,0.516,0.5154,0.5142,0.5129,0.5129,0.5089,0.5086,0.5079,0.5072,0.5058,0.505,0.5034,0.502,0.4992,0.4987,0.4992,0.5002,0.5014,0.5008,0.4915,0.4986,0.4985,0.4984,0.4984,0.4984,0.5254,0.5259,0.5237,0.5231,0.5217,0.5205,0.5206,0.5184,0.5178,0.5164,0.5142,0.5139,0.5118,0.5094,0.5082,0.5078,0.5062,0.5069,0.507,0.5072,0.5078,0.5014,0.5075,0.5075,0.5074,0.5074,0.5074,0,0.5328,0.5312,0.5306,0.5289,0.5283,0.5257,0.524,0.5238,0.5235,0.5218,0.5209,0.5201,0.5192,0.5165,0.5153,0.5155,0.5142,0.5153,0.5153,0.515,0.5092,0.509,0.5164,0.5164,0.5164,0.5164,0.5164,0.5164,0.5367,0.5373,0.5355,0.5354,0.5338,0.5334,0.5326,0.5315,0.5301,0.5294,0.5286,0.5268,0.5246,0.5232,0.5223,0.5215,0.5212,0.5228,0.5216,0.5163,0.5154,0.5146,0.5143,0.5228,0.5228,0.5274,0.5274,0.5275]}]]